Weather History for Kendall, FL

Change the Weather History Date:

Saturday, November 17, 2012

  Actual Average Record
Temperature  
Mean Temperature 72 °F -  
Max Temperature 81 °F 80 °F 87 °F (2000)
Min Temperature 64 °F 61 °F 51 °F (1989)
Cooling Degree Days 8    
Growing Degree Days 22 (Base 50)    
Moisture  
Dew Point 64 °F    
Average Humidity 80    
Maximum Humidity 100    
Minimum Humidity 54    
Precipitation  
Precipitation 0.01 in - - ()
Sea Level Pressure  
Sea Level Pressure 30.05 in    
Wind  
Wind Speed 7 mph (NNE)    
Max Wind Speed 14 mph    
Max Gust Speed -    
Visibility 10 miles    
Events      
Averages and records for this station are not official NWS values.
T = Trace of Precipitation, MM = Missing Value Source: NWS Daily Summary

Daily Weather History Graph

Daily Weather History Graph

Search for Another Location

Airport:

Trip Planner

Search our weather history database for the weather conditions in past years. The results will help you decide how hot, cold, wet, or windy it might be!

Date:

Astronomy

Nov. 17, 2012 Rise Set
Actual Time 6:41 AM EST 5:32 PM EST
Civil Twilight 6:16 AM EST 5:56 PM EST
Nautical Twilight 5:48 AM EST 6:24 PM EST
Astronomical Twilight 5:21 AM EST 6:51 PM EST
Moon 10:24 AM EST (11/17) 9:38 PM EST (11/17)
Length of Visible Light 11h 39m
Length of Day
10h 51m
Waxing Crescent, 20% of the Moon is Illuminated
Nov 17
Waxing Crescent
Nov 20
First Quarter
Nov 28
Full
Dec 6
Last Quarter
Dec 13
New

Hourly Weather History & Observations

Time (EST) Temp. Heat Index Dew Point Humidity Pressure Visibility Wind Dir Wind Speed Gust Speed Precip Events Conditions
12:53 AM 66.9 °F - 64.9 °F 93% 30.04 in 10.0 mi WNW 3.5 mph - N/A   Clear
1:53 AM 66.9 °F - 64.9 °F 93% 30.03 in 10.0 mi North 8.1 mph - N/A   Clear
2:53 AM 66.9 °F - 64.9 °F 93% 30.02 in 10.0 mi NNW 5.8 mph - 0.01 in   Scattered Clouds
3:53 AM 64.9 °F - 64.0 °F 97% 30.02 in 10.0 mi NNW 4.6 mph - N/A   Clear
4:53 AM 64.9 °F - 64.0 °F 97% 30.04 in 10.0 mi NNW 3.5 mph - N/A   Partly Cloudy
5:04 AM 64.4 °F - 64.4 °F 100% 30.05 in 10.0 mi North 3.5 mph - N/A   Mostly Cloudy
5:12 AM 66.2 °F - 64.4 °F 94% 30.05 in 10.0 mi North 5.8 mph - N/A   Mostly Cloudy
5:19 AM 66.2 °F - 64.4 °F 94% 30.05 in 10.0 mi North 9.2 mph - N/A   Mostly Cloudy
5:31 AM 66.2 °F - 64.4 °F 94% 30.05 in 10.0 mi North 4.6 mph - N/A   Mostly Cloudy
5:53 AM 66.0 °F - 64.0 °F 93% 30.06 in 10.0 mi North 8.1 mph - N/A   Overcast
6:53 AM 64.9 °F - 64.0 °F 97% 30.06 in 10.0 mi North 4.6 mph - N/A   Partly Cloudy
7:53 AM 68.0 °F - 64.9 °F 90% 30.09 in 10.0 mi NE 5.8 mph - N/A   Scattered Clouds
8:53 AM 71.1 °F - 66.0 °F 84% 30.09 in 10.0 mi NE 8.1 mph - N/A   Scattered Clouds
9:06 AM 71.6 °F - 66.2 °F 83% 30.10 in 10.0 mi NNE 9.2 mph - N/A   Mostly Cloudy
9:13 AM 73.4 °F - 66.2 °F 78% 30.10 in 10.0 mi NNE 12.7 mph - N/A   Scattered Clouds
9:53 AM 75.9 °F - 64.9 °F 69% 30.09 in 10.0 mi NE 11.5 mph - N/A   Clear
10:53 AM 78.1 °F - 63.0 °F 60% 30.09 in 10.0 mi ENE 13.8 mph - N/A   Clear
11:53 AM 78.1 °F - 64.0 °F 62% 30.07 in 10.0 mi ENE 10.4 mph - N/A   Mostly Cloudy
12:53 PM 81.0 °F 82.2 °F 63.0 °F 54% 30.05 in 10.0 mi Variable 6.9 mph - N/A   Mostly Cloudy
1:53 PM 78.1 °F - 63.0 °F 60% 30.03 in 10.0 mi NE 10.4 mph - N/A   Mostly Cloudy
2:53 PM 81.0 °F 82.5 °F 64.0 °F 56% 30.03 in 10.0 mi East 9.2 mph - N/A   Scattered Clouds
3:53 PM 78.1 °F - 64.0 °F 62% 30.02 in 10.0 mi East 12.7 mph - N/A   Scattered Clouds
4:53 PM 75.9 °F - 64.0 °F 67% 30.03 in 10.0 mi East 10.4 mph - N/A   Partly Cloudy
5:53 PM 73.9 °F - 63.0 °F 68% 30.04 in 10.0 mi NE 6.9 mph - N/A   Clear
6:53 PM 73.0 °F - 63.0 °F 71% 30.05 in 10.0 mi NE 4.6 mph - N/A   Partly Cloudy
7:53 PM 73.0 °F - 63.0 °F 71% 30.05 in 10.0 mi NE 5.8 mph - N/A   Clear
8:53 PM 73.0 °F - 63.0 °F 71% 30.06 in 10.0 mi NNE 4.6 mph - N/A   Clear
9:53 PM 71.1 °F - 63.0 °F 75% 30.06 in 10.0 mi North 4.6 mph - N/A   Partly Cloudy
10:53 PM 70.0 °F - 64.0 °F 81% 30.07 in 10.0 mi North 5.8 mph - N/A   Mostly Cloudy
11:53 PM 69.1 °F - 64.9 °F 87% 30.06 in 10.0 mi North 6.9 mph - N/A   Clear